EHI
2 2 1 0 0 0 0 0 0 1 0 0 0 0 0 0 0 0 0 1 3 3 2 3 4 5 6 7 5 2 0 1 3 4 3 1 1 1 1 0 0 0 0
2 2 1 0 0 0 0 0 1 1 0 0 0 0 0 0 0 0 0 1 3 3 3 2 2 4 6 7 6 4 2 3 4 4 2 1 1 1 1 1 0 0 0
2 1 0 0 0 0 0 1 1 1 0 0 0 0 0 0 0 0 0 1 2 3 3 2 2 3 4 5 5 5 5 6 6 4 2 1 0 0 1 1 0 0 0
1 1 1 0 0 0 0 1 2 1 0 0 0 0 0 0 0 0 0 0 1 2 2 2 2 2 2 2 3 4 6 7 7 6 3 1 0 0 1 1 0 0 0
1 1 2 1 0 0 0 1 2 1 0 0 0 0 0 0 0 0 0 1 1 1 1 2 2 1 1 2 1 1 2 4 7 8 6 3 2 1 1 0 0 0 0
1 1 2 1 1 0 0 1 2 1 0 0 0 0 0 0 0 0 0 1 2 1 1 1 1 0 1 1 1 0 0 2 5 7 6 4 3 3 2 1 0 0 0
1 1 1 0 0 0 0 1 2 1 0 0 0 0 0 0 1 0 0 0 1 1 0 0 0 0 0 1 1 0 0 1 2 4 4 4 4 3 2 1 0 0 0
2 2 1 1 1 0 0 1 1 1 0 0 0 0 0 1 2 1 1 1 1 0 0 0 0 0 0 0 1 1 1 0 1 1 2 2 2 2 1 1 0 0 0
3 3 2 2 2 1 1 1 1 0 0 0 0 1 0 1 2 2 1 2 2 0 0 0 0 0 0 0 0 1 1 1 0 0 1 1 1 1 0 0 0 0 0
3 3 2 2 2 2 2 1 1 0 0 0 0 0 0 0 1 1 1 1 1 1 0 0 0 0 0 0 0 1 2 1 0 0 0 0 0 0 0 0 0 0 0
3 2 1 0 1 1 1 1 1 1 0 0 0 0 0 0 0 0 0 0 0 1 1 0 0 0 0 0 0 1 2 1 0 0 0 0 0 0 0 0 0 0 0
3 1 0 0 1 1 1 1 2 1 1 1 0 0 0 0 0 0 0 0 0 1 2 1 0 0 0 0 0 1 2 1 0 0 0 0 0 0 0 0 0 0 1
3 3 2 2 2 2 3 3 3 3 3 2 1 0 0 0 0 0 0 0 0 1 2 2 1 1 1 1 1 1 1 0 0 0 0 0 0 0 0 0 0 0 1
5 5 5 5 4 3 3 3 4 4 5 4 1 0 1 1 2 2 1 1 1 1 1 2 2 2 2 2 1 1 1 1 0 0 0 0 0 0 0 0 0 0 1
6 5 5 5 5 4 4 4 5 6 6 5 3 2 2 3 5 5 4 3 2 1 1 2 4 4 3 2 1 1 3 3 1 0 0 0 0 0 0 0 0 0 0
8 5 4 5 6 6 6 5 5 5 6 6 5 5 4 4 5 6 6 5 4 2 1 2 3 4 3 3 2 2 3 4 2 0 0 0 0 0 0 0 0 0 0
9 6 5 6 8 8 8 7 4 3 5 5 6 6 6 5 5 6 7 7 6 5 3 2 2 4 5 6 5 4 3 3 2 1 0 0 0 0 0 0 0 0 0
7 7 7 8 10 10 9 7 4 2 2 3 4 4 5 5 5 6 7 6 6 7 6 4 3 5 7 7 7 5 4 3 2 1 0 0 0 0 0 0 0 0 0
7 6 7 9 11 10 8 6 4 2 1 2 3 3 4 5 5 5 5 5 6 7 7 6 5 6 7 7 7 5 5 4 2 0 0 0 0 0 0 0 0 0 0
10 8 7 9 10 10 9 7 5 3 3 4 4 4 4 4 4 4 4 4 6 8 8 7 8 7 7 8 7 6 6 6 4 1 1 0 0 0 0 0 0 0 0
13 12 11 11 12 11 9 9 7 7 8 8 7 6 6 5 4 4 3 3 6 9 10 11 10 9 9 11 10 8 7 7 5 4 2 1 1 1 1 1 0 0 0
15 15 15 15 14 11 7 6 7 9 11 12 11 9 8 6 5 4 2 2 4 7 9 12 12 12 12 14 13 10 9 8 7 6 4 3 2 2 2 1 0 0 0
15 16 17 17 15 10 5 2 4 8 11 13 12 11 10 8 7 5 4 3 3 4 6 10 13 14 15 18 17 14 11 10 8 7 4 3 2 2 1 1 0 0 0
17 16 16 16 15 10 5 2 2 5 10 12 13 12 10 7 5 4 4 5 6 5 4 7 10 11 12 15 16 15 13 11 8 5 3 1 1 1 0 0 0 0 0
22 19 16 16 15 11 6 2 3 7 11 12 13 12 8 6 3 2 3 6 8 6 4 3 4 4 5 6 9 12 13 10 7 5 3 1 0 0 0 0 0 0 0
26 22 18 16 16 13 7 3 4 9 13 14 14 12 7 4 3 2 4 7 9 7 5 2 1 0 0 0 4 9 11 9 7 6 5 2 1 0 0 0 0 0 0
Wind_Speed
2 3 2 1 2 2 3 2 2 3 3 3 2 3 2 1 1 1 5 7 5 4 4 5 5 5 5 4 4 4 4 5 5 5 5 6 6 6 7 8 8 8 8
2 2 2 2 1 2 1 1 3 3 2 2 2 2 2 2 2 1 3 7 7 5 4 4 4 4 4 4 4 4 5 6 6 5 5 5 5 6 7 7 8 8 8
3 2 2 2 2 2 2 2 3 2 2 3 3 2 2 1 2 2 2 2 5 7 5 4 3 4 4 4 4 4 5 5 5 5 5 6 5 6 6 6 7 7 8
3 2 2 2 2 2 2 2 2 2 2 1 2 2 2 2 2 2 2 2 1 3 6 5 3 3 3 4 4 4 4 4 4 5 5 6 6 6 6 6 7 7 8
3 2 2 2 1 1 1 1 2 1 2 1 1 2 1 2 2 2 2 2 2 1 2 7 6 3 3 3 3 3 4 4 4 4 5 5 5 5 6 6 7 7 8
2 1 2 2 1 1 1 2 2 1 1 1 1 1 1 2 2 2 2 2 2 2 2 2 4 5 5 3 2 3 3 3 3 3 4 4 4 5 5 5 6 7 8
2 1 1 2 0 1 1 1 1 2 1 1 2 2 2 3 2 2 2 1 2 2 2 2 2 1 4 7 4 2 2 2 2 3 3 3 3 3 4 5 5 6 7
2 2 1 2 1 2 2 2 1 1 1 1 2 2 2 3 3 2 2 2 1 2 2 2 2 1 2 1 5 4 2 2 3 3 2 2 2 3 4 5 6 6 6
3 1 2 1 1 1 2 2 2 2 1 1 1 2 2 1 2 3 2 2 1 1 1 1 2 1 2 1 1 4 2 2 3 3 3 3 3 3 4 5 5 6 7
3 3 3 2 1 1 2 2 2 1 2 2 1 1 3 3 2 2 3 2 2 2 1 2 1 2 2 1 1 3 2 0 2 3 3 3 3 3 4 4 5 6 6
4 4 3 3 2 1 1 1 1 2 2 2 1 1 1 1 3 3 1 1 1 1 1 2 2 1 1 2 1 3 2 1 1 2 2 3 3 3 4 4 5 5 5
4 5 4 3 3 2 2 2 2 3 2 1 2 2 2 2 2 2 2 2 1 1 1 1 2 2 2 2 0 4 2 0 1 2 2 2 2 3 3 3 4 4 5
4 5 4 4 3 3 3 3 3 2 2 2 2 2 2 2 2 2 3 2 2 2 1 3 2 2 2 1 1 3 3 2 1 1 2 2 2 2 3 3 3 4 4
3 4 5 4 4 4 4 3 3 3 2 3 2 2 3 2 2 2 3 3 3 2 2 1 2 2 2 2 1 4 2 4 3 2 2 2 2 2 2 2 3 3 3
4 5 5 5 5 4 4 4 2 3 2 3 3 3 3 2 3 3 3 3 4 4 2 2 2 1 2 1 1 3 2 4 4 3 3 2 2 2 2 3 3 3 3
4 5 5 5 5 5 4 4 4 3 3 3 2 2 3 3 2 3 3 3 4 5 4 2 2 2 2 3 2 3 3 5 5 5 4 3 3 3 2 3 3 3 3
5 6 6 5 5 5 5 4 4 4 4 3 3 3 3 3 3 3 3 3 3 4 5 3 2 1 2 4 3 4 4 4 4 7 5 4 3 3 3 3 3 3 3
6 6 6 6 6 5 5 5 5 4 5 5 4 4 4 3 3 4 3 4 3 4 5 4 3 3 3 3 3 5 4 3 3 6 7 5 4 3 3 3 3 3 3
6 6 7 6 6 6 5 5 5 5 5 5 5 5 4 4 4 3 4 4 4 4 4 5 4 2 3 3 3 4 4 3 5 5 8 8 6 5 4 3 3 2 3
7 7 7 7 6 6 6 5 5 5 5 5 5 5 5 5 5 5 4 5 5 5 4 5 5 3 3 2 3 4 4 3 4 3 2 3 6 7 6 5 4 3 3
8 7 7 6 6 6 5 6 6 6 5 5 5 5 5 3 3 4 5 4 4 5 5 4 5 4 3 2 3 4 4 4 3 3 3 3 4 4 5 7 6 4 3
7 7 7 7 7 5 4 5 6 6 6 6 5 5 5 6 5 6 5 6 6 6 6 5 5 5 4 4 3 5 4 5 3 1 4 3 3 3 2 2 2 3 3
8 7 7 6 6 5 5 6 6 6 6 5 5 5 5 3 5 5 6 8 8 8 7 7 7 7 5 4 5 6 4 5 5 2 4 4 3 3 2 2 4 4 4
6 6 6 7 6 6 7 7 7 8 6 6 5 5 5 4 4 4 6 6 6 6 7 8 6 7 6 4 5 6 5 5 5 4 4 5 3 3 2 2 6 6 6
6 6 6 7 7 6 7 8 8 7 6 6 6 5 5 5 2 4 6 7 6 5 5 5 5 5 4 4 5 5 5 5 5 3 2 4 4 3 3 3 4 8 7
6 6 6 7 7 6 7 8 9 6 6 5 5 5 5 4 4 5 6 6 6 5 5 5 6 7 8 7 7 6 5 5 5 4 1 3 3 3 3 2 2 3 5
Wind_Direction
130 123 111 116 128 124 144 135 116 120 131 136 132 128 105 81 93 121 120 130 139 153 161 169 178 186 193 193 200 210 220 224 216 216 219 220 222 222 222 224 227 227 227
108 120 128 131 130 137 110 125 125 134 136 123 131 132 143 145 139 170 142 144 152 155 157 164 176 182 193 200 208 219 226 231 228 223 222 221 222 223 222 223 227 230 230
119 136 130 149 117 131 144 149 133 144 154 148 147 149 154 162 147 167 179 161 153 155 155 166 185 194 198 204 208 218 223 229 227 223 228 228 225 226 226 227 230 230 232
139 155 131 113 115 155 154 140 154 142 139 150 146 154 145 152 165 177 180 174 159 153 157 160 174 185 199 206 210 217 220 226 230 229 230 230 227 228 228 233 239 239 239
138 151 108 94 172 152 129 144 112 147 153 156 173 156 158 160 170 178 175 178 164 184 157 149 167 177 192 208 221 226 225 228 232 232 235 234 227 225 230 235 240 242 242
138 145 137 131 188 131 109 84 115 119 191 192 200 134 159 159 172 155 199 181 181 186 182 169 180 175 176 186 210 224 228 231 228 225 233 241 235 233 233 238 245 244 243
148 177 128 134 188 110 101 132 166 163 199 184 191 165 163 174 165 167 199 205 175 189 189 194 229 222 166 170 178 190 218 234 239 237 238 247 244 246 243 241 245 247 245
182 171 152 171 128 125 136 142 189 234 197 217 250 216 184 165 184 162 180 196 206 205 202 189 179 195 288 174 129 166 212 234 241 240 242 249 256 257 255 251 248 245 241
194 174 154 147 149 190 142 170 191 210 223 221 286 292 282 164 147 158 176 169 199 234 228 220 204 186 219 245 150 142 160 243 253 253 254 262 260 262 264 262 262 254 246
189 172 162 151 190 176 146 202 157 230 233 230 206 294 325 349 290 167 175 164 186 221 242 264 235 190 210 212 137 75 107 235 268 259 255 264 263 266 266 268 269 266 259
189 182 168 172 188 205 163 211 168 238 233 254 256 230 231 233 270 281 236 201 196 206 219 253 276 259 233 234 221 95 117 100 315 290 265 260 257 260 268 276 274 275 271
187 183 183 183 190 182 176 195 198 200 242 262 277 273 260 266 269 277 271 250 248 221 223 250 267 276 262 253 120 92 115 137 293 292 281 268 256 257 266 281 282 277 276
187 177 186 186 187 182 189 195 200 219 216 221 243 262 274 279 290 287 287 286 271 242 222 236 245 257 273 269 132 137 160 187 239 262 280 272 262 265 276 289 291 283 281
188 170 186 186 183 188 195 195 212 205 206 217 227 261 271 273 277 277 287 287 278 252 216 237 260 252 297 283 59 236 192 176 210 236 257 277 277 266 268 278 288 288 285
186 181 189 189 189 192 202 206 207 216 217 226 222 222 256 263 264 270 272 276 285 285 271 198 245 249 264 273 203 260 257 162 197 224 241 262 280 266 267 266 271 273 269
190 187 189 192 190 194 201 214 209 202 226 233 247 263 269 269 277 271 270 265 269 280 287 295 272 282 308 291 191 266 255 167 197 210 219 229 246 252 256 261 260 263 266
193 194 193 188 191 198 202 211 226 212 227 233 241 237 248 276 275 269 263 265 264 269 273 279 277 264 267 284 290 276 255 234 195 183 196 211 229 246 254 255 257 260 266
200 195 196 194 200 201 206 213 224 221 225 231 239 245 248 242 248 271 273 266 264 267 269 274 277 266 251 259 268 272 273 265 254 162 182 200 215 225 241 241 247 259 269
202 200 199 199 204 207 210 216 221 227 230 235 238 241 246 248 253 259 266 268 264 256 261 264 265 266 263 262 267 266 269 272 268 184 182 192 201 206 217 223 228 242 263
202 201 202 202 206 208 209 214 217 224 230 235 239 242 246 251 258 263 256 259 271 274 262 262 266 263 255 248 262 270 267 240 265 267 243 216 193 197 203 209 215 225 240
204 201 202 203 209 209 210 213 221 222 228 237 240 241 243 250 280 281 284 280 270 265 265 262 265 267 270 274 271 276 281 275 249 268 266 238 210 216 200 198 205 223 230
204 202 203 204 211 214 180 195 226 226 230 236 243 246 238 221 222 229 258 280 284 272 275 276 270 276 279 278 285 281 282 280 278 243 271 265 250 251 231 214 155 188 218
198 201 205 208 211 199 174 197 221 233 230 235 243 250 255 232 232 243 232 230 240 246 258 272 277 281 281 282 280 271 272 281 290 298 280 276 263 261 237 149 158 188 202
199 200 206 212 214 198 182 199 215 229 233 231 234 239 248 250 250 260 256 248 247 237 233 244 265 276 284 289 273 270 272 258 256 254 269 276 272 269 260 193 168 189 197
201 202 204 211 216 202 183 194 208 221 221 226 229 230 236 239 235 255 253 252 251 247 222 227 254 269 287 279 274 269 264 265 266 249 234 270 276 275 258 234 187 186 195
203 206 204 210 214 211 183 189 206 226 221 223 222 222 218 238 223 235 249 255 257 262 263 235 229 231 235 226 222 248 264 269 278 277 212 260 275 275 265 238 222 196 202